Orbital Elements at Epoch 2459200.5 (2020-Dec-17.0) TDB
Reference: JPL 15 (heliocentric ecliptic J2000)
Element | Value | Uncertainty (1-sigma) | Units |
e | .2389223156472243 | 3.8713e-08 | |
a | 2.363445455423502 | 9.2722e-09 | au |
q | 1.79876559430781 | 8.9026e-08 | au |
i | 5.505069223898159 | 4.6403e-06 | deg |
node | 162.0300606477652 | 4.4212e-05 | deg |
peri | 144.2107376107989 | 4.5759e-05 | deg |
M | 84.04316192569681 | 1.2401e-05 | deg |
tp | 2458890.674838079930 (2020-Feb-11.17483808) | 4.4544e-05 | TDB |
period | 1327.140194818418 3.63 | 7.8099e-06 2.138e-08 | d yr |
n | .2712599628928095 | 1.5963e-09 | deg/d |
Q | 2.928125316539194 | 1.1487e-08 | au |
|
| | Orbit Determination Parameters
Additional Information
|